Snowfall_Accumulation
0.0 0.0 0.0 0.0 0.0 0.0 0.0 0.0 0.0 0.0 0.0 0.0 0.0 0.0 0.0 0.0 0.0 0.0 0.0 0.0 0.0 0.0
0.0 0.0 0.0 0.0 0.0 0.0 0.0 0.0 0.0 0.0 0.0 0.0 0.0 0.0 0.0 0.0 0.0 0.0 0.0 0.0 0.0 0.0
0.0 0.0 0.0 0.0 0.0 0.0 0.0 0.0 0.0 0.0 0.0 0.0 0.0 0.0 0.0 0.0 0.0 0.0 0.0 0.0 0.0 0.0
0.0 0.0 0.0 0.0 0.0 0.0 0.0 0.0 0.0 0.0 0.0 0.0 0.0 0.0 0.0 0.0 0.0 0.0 0.0 0.0 0.0 0.0
0.0 0.0 0.0 0.0 0.0 0.0 0.0 0.0 0.0 0.0 0.0 0.0 0.0 0.0 0.0 0.0 0.0 0.0 0.0 0.0 0.0 0.0
0.0 0.0 0.0 0.0 0.0 0.0 0.0 0.0 0.0 0.0 0.0 0.0 0.0 0.0 0.0 0.0 0.0 0.0 0.0 0.0 0.0 0.0
0.0 0.0 0.0 0.0 0.0 0.0 0.0 0.0 0.0 0.0 0.0 0.0 0.0 0.0 0.0 0.0 0.0 0.0 0.0 0.0 0.0 0.0
0.1 0.0 0.0 0.0 0.0 0.0 0.1 0.1 0.0 0.0 0.0 0.0 0.0 0.0 0.0 0.0 0.0 0.0 0.0 0.0 0.0 0.0
1.4 0.2 0.0 0.1 0.1 0.1 0.1 0.1 0.1 0.1 0.0 0.0 0.0 nan nan 0.0 0.0 0.0 0.0 0.0 0.0 0.0
3.4 5.6 2.5 0.6 1.3 0.8 0.5 0.2 0.3 0.3 0.1 0.3 0.3 nan nan nan 0.0 0.0 0.1 0.0 0.0 0.0
4.5 6.5 7.7 4.4 4.9 5.3 3.5 3.5 1.7 1.9 1.6 1.0 0.8 nan nan nan 1.2 0.8 1.0 0.9 0.7 0.3
2.4 5.2 5.3 6.9 7.5 5.8 5.1 5.1 4.9 2.5 2.8 2.6 1.8 nan nan 1.6 1.7 1.4 1.2 1.2 1.3 1.0
0.2 0.7 1.4 2.5 4.6 4.9 3.4 5.0 4.0 3.4 3.2 nan 3.3 nan nan nan 0.9 1.3 1.7 1.5 1.4 nan
0.8 0.8 0.7 0.6 0.9 1.0 1.1 1.4 2.0 2.6 2.9 2.7 2.6 3.1 nan nan 3.6 4.7 4.0 5.0 5.8 5.0
Water_Equivalent
0.00 0.00 0.00 0.00 0.00 0.00 0.00 0.00 0.00 0.00 0.00 0.00 0.00 0.00 0.00 0.00 0.00 0.00 0.00 0.00 0.00 0.00
0.00 0.00 0.00 0.00 0.00 0.00 0.00 0.00 0.00 0.00 0.00 0.00 0.00 0.00 0.00 0.00 0.00 0.00 0.00 0.00 0.00 0.00
0.00 0.00 0.00 0.00 0.00 0.00 0.00 0.00 0.00 0.00 0.00 0.00 0.00 0.00 0.00 0.00 0.00 0.00 0.00 0.00 0.00 0.00
0.00 0.00 0.00 0.00 0.00 0.00 0.00 0.00 0.00 0.00 0.00 0.00 0.00 0.00 0.00 0.00 0.00 0.00 0.00 0.00 0.00 0.00
0.00 0.00 0.00 0.00 0.00 0.00 0.00 0.00 0.00 0.00 0.00 0.00 0.00 0.00 0.00 0.00 0.00 0.00 0.00 0.00 0.00 0.00
0.00 0.00 0.00 0.00 0.00 0.00 0.00 0.00 0.00 0.00 0.00 0.00 0.00 0.00 0.00 0.00 0.00 0.00 0.00 0.00 0.00 0.00
0.01 0.01 0.00 0.00 0.00 0.00 0.00 0.00 0.00 0.00 0.00 0.00 0.00 0.00 0.00 0.00 0.00 0.00 0.00 0.00 0.00 0.00
0.04 0.01 0.00 0.00 0.00 0.00 0.02 0.02 0.00 0.00 0.00 0.00 0.00 0.00 0.00 0.00 0.00 0.00 0.00 0.00 0.00 0.00
0.39 0.04 0.00 0.02 0.02 0.03 0.02 0.03 0.01 0.01 0.00 0.01 0.00 nan nan 0.00 0.00 0.00 0.00 0.00 0.00 0.00
0.84 1.64 0.52 0.13 0.27 0.15 0.11 0.05 0.06 0.07 0.03 0.06 0.05 nan nan nan 0.00 0.01 0.01 0.00 0.00 0.00
0.87 1.37 2.46 1.07 1.21 1.25 0.62 0.65 0.27 0.31 0.27 0.17 0.14 nan nan nan 0.26 0.17 0.19 0.16 0.12 0.05
0.56 0.98 1.11 1.58 1.99 1.77 1.54 1.53 1.31 0.63 0.64 0.72 0.45 nan nan 0.33 0.34 0.29 0.25 0.23 0.21 0.15
0.05 0.16 0.29 0.50 1.01 1.31 0.86 1.35 1.10 1.11 0.95 nan 0.78 nan nan nan 0.25 0.24 0.39 0.31 0.27 nan
0.17 0.20 0.18 0.17 0.27 0.27 0.28 0.34 0.45 0.58 0.66 0.56 0.46 0.61 nan nan 0.66 0.84 0.71 0.86 0.98 1.04
SL_Ratio
nan nan nan nan nan nan nan nan nan nan nan nan nan nan nan nan nan nan nan nan nan nan
nan nan nan nan nan nan nan nan nan nan nan nan nan nan nan nan nan nan nan nan nan nan
nan nan nan nan nan nan nan nan nan nan nan nan nan nan nan nan nan nan nan nan nan nan
nan nan nan nan nan nan nan nan nan nan nan nan nan nan nan nan nan nan nan nan nan nan
nan nan nan nan nan nan nan nan nan nan nan nan nan nan nan nan nan nan nan nan nan nan
nan nan nan nan nan nan nan nan nan nan nan nan nan nan nan nan nan nan nan nan nan nan
3.5 4.0 5.0 nan nan nan nan nan nan nan nan nan nan nan nan nan nan nan nan nan nan nan
3.3 3.7 3.3 nan nan nan 4.7 5.2 6.0 nan nan nan nan nan nan nan nan nan nan nan nan nan
3.7 4.4 3.8 4.3 4.3 5.1 5.1 4.9 5.0 5.0 4.4 5.5 nan nan nan nan nan nan nan nan nan nan
4.1 3.4 4.8 4.8 4.9 5.2 5.0 4.5 4.6 4.8 4.6 4.8 5.3 nan nan nan 5.8 5.5 5.9 5.0 10.0 nan
5.1 4.7 3.1 4.1 4.0 4.3 5.6 5.3 6.2 6.1 5.9 5.8 5.3 nan nan nan 4.4 4.5 5.5 5.9 5.6 5.9
4.3 5.3 4.8 4.4 3.7 3.3 3.3 3.4 3.7 4.1 4.3 3.6 4.0 nan nan 4.8 5.1 4.8 4.8 5.3 6.3 6.3
4.6 4.6 4.8 5.0 4.5 3.7 3.9 3.7 3.6 3.1 3.4 nan 4.3 nan nan nan 3.6 5.4 4.4 4.7 4.9 nan
4.5 4.0 3.7 3.5 3.5 3.8 3.8 4.0 4.4 4.4 4.4 4.8 5.7 5.1 nan nan 5.5 5.6 5.6 5.8 5.9 4.8